#timestamp,LO_Frequency,Hit,StdDev 
1506549615.2,286046998.4,N
1506549635.1,286047000.5,N
1506549636.0,286047000.5,N
1506549655.8,286046998.3,N
1506549675.6,286047001.1,N
1506549695.5,286046998.1,N
1506549715.3,286047001.7,N
1506549735.1,286047000.3,N
1506549755.9,286047004.3,N
1506549775.7,286047003.0,N
1506549795.5,286047006.0,N
1506549815.4,286047003.4,N
1506549835.2,286047001.3,N
1506549855.0,286047001.9,N
1506549855.9,286047001.9,N
1506549875.7,286047003.8,N
1506549895.6,286047004.1,N
1506549915.4,286047003.5,N
1506549935.2,286047003.9,N
1506549955.1,286047003.1,N
1506549956.0,286047003.1,N
1506549975.8,286047005.6,N
1506549995.6,286047005.5,N
1506550015.5,286047006.9,N
1506550035.3,286047005.2,N
1506550055.1,286047007.5,N
1506550075.9,286047003.7,N
1506550095.7,286047004.2,N
1506550115.5,286047007.0,N
1506550135.4,286047006.0,N
1506550155.2,286047003.0,N
1506550175.0,286047002.2,N
1506550175.9,286047002.2,N
1506550195.8,286047001.6,N
1506550215.6,286047001.6,N
1506550235.4,286047003.8,N
1506550255.2,286047003.5,N
1506550275.1,286047004.2,N
1506550276.0,286047004.2,N
1506550295.8,286047007.4,Y
1506550315.7,286047002.6,P
1506550335.5,286047002.4,P
1506550355.3,286047002.8,P
1506550375.2,286047001.8,Y
1506550395.9,286046999.1,P
1506550415.7,286046999.3,N
1506550435.5,286046997.7,N
1506550455.4,286046999.4,N
1506550475.2,286046997.8,N
1506550495.0,286046998.7,N
1506550495.9,286046998.7,N
1506550515.8,286046998.6,N
1506550535.6,286046998.1,N
1506550555.4,286046999.7,N
1506550575.3,286047002.3,N
1506550595.1,286047000.1,N
1506550596.0,286047000.1,N
1506550615.8,286047002.3,N
1506550635.7,286047001.7,N
1506550655.5,286046999.8,N
1506550675.3,286047000.6,N
1506550695.1,286047000.2,N
1506550715.9,286047000.7,N
1506550735.7,286046998.8,N
1506550755.5,286046997.7,N
1506550775.4,286046998.0,N
1506550795.2,286046996.8,N
1506550815.0,286046999.4,N
1506550815.9,286046999.4,N
1506550835.8,286046998.2,N
1506550855.6,286046999.6,N
1506550875.4,286046998.7,N
1506550895.3,286047001.0,N
1506550915.1,286046998.1,N
1506550916.0,286046998.1,N
1506550935.8,286046998.9,N
1506550955.7,286046999.0,N
1506550975.5,286046998.1,N
1506550995.3,286046998.7,N
1506551015.2,286046998.2,N
1506551035.9,286047000.3,N
1506551055.7,286046998.3,N
1506551075.5,286046998.1,N
1506551095.4,286046999.6,N
1506551115.2,286046998.1,N
1506551135.0,286047000.6,N
1506551135.9,286047000.6,N
1506551155.8,286047000.8,N
1506551175.6,286046998.1,N
1506551195.4,286046998.4,N
1506551215.3,286046998.2,N
1506551235.1,286047000.5,N
1506551236.0,286047000.5,N
1506551255.8,286046998.6,N
1506551275.7,286046999.8,N
1506551295.5,286047002.2,N
1506551315.3,286047001.7,N
1506551335.2,286047001.7,N
1506551355.9,286046999.8,N
1506551375.7,286047002.8,N
1506551395.5,286047001.5,N
1506551415.4,286047000.2,N
1506551435.2,286047004.0,N
1506551455.0,286047002.2,N
1506551455.9,286047002.2,N
1506551475.8,286047000.5,N
1506551495.6,286047000.6,N
1506551515.4,286047002.8,N
1506551535.3,286046999.9,N
1506551555.1,286047000.7,N
1506551575.8,286046998.5,N
1506551595.7,286047002.5,N
1506551615.5,286047001.1,N
1506551635.3,286047002.4,N
1506551655.2,286047002.6,N
1506551675.9,286047000.2,N
1506551695.7,286047002.7,N
1506551715.6,286047000.1,N
1506551735.4,286047002.4,N
1506551755.2,286047001.3,N
1506551775.0,286047001.4,N
1506551775.9,286047001.4,N
1506551795.8,286047003.9,Y
1506551815.6,286047001.4,P
1506551835.4,286047001.6,P
1506551855.3,286047001.9,P
1506551875.1,286046999.7,N
1506551895.9,286047003.0,Y
1506551915.7,286047002.0,P
1506551935.5,286047002.7,P
1506551955.3,286047004.4,P
1506551975.2,286047001.5,N
1506551995.0,286047001.7,N
1506551995.9,286047001.7,N
1506552015.7,286047004.4,Y
1506552035.6,286047000.2,P
1506552055.4,286047000.8,N
1506552075.2,286046998.1,N
1506552095.1,286047001.2,N
1506552096.0,286047001.2,N
1506552115.8,286046998.6,N
1506552135.6,286046999.3,N
1506552155.5,286047001.1,N
1506552175.3,286047000.8,N
1506552195.1,286046998.4,N
1506552215.9,286047000.9,N
1506552235.7,286047000.8,N
1506552255.5,286047000.4,N
1506552275.4,286047000.3,N
1506552295.2,286047000.9,N
1506552315.0,286047000.3,N
1506552315.9,286047000.3,N
1506552335.7,286047000.9,N
1506552355.6,286046998.6,N
1506552375.4,286046998.2,N
1506552395.2,286046996.5,Y
1506552415.1,286046999.9,P
1506552416.0,286046999.9,N
1506552435.8,286047000.7,P
1506552455.6,286046999.9,N
1506552475.5,286047000.8,N
1506552495.3,286046998.9,N
1506552515.1,286046999.7,N
1506552535.9,286047000.3,N
1506552555.7,286047000.9,N
1506552575.5,286046996.5,Y
1506552595.4,286046997.3,P
1506552615.2,286046999.3,N
1506552635.0,286046998.8,N
1506552635.9,286046998.8,N
1506552655.8,286046999.3,N
1506552675.6,286046999.4,N
1506552695.4,286046997.0,Y
1506552715.3,286046999.3,P
1506552735.1,286046999.3,P
1506552736.0,286046999.3,P
1506552755.8,286046997.0,Y
1506552775.7,286046998.9,P
1506552795.5,286047001.0,P
1506552815.3,286047002.7,N
1506552835.2,286047002.4,N
1506552855.9,286047002.8,N
1506552875.7,286047000.7,N
1506552895.6,286046998.2,N
1506552915.4,286047000.3,N
1506552935.2,286047000.5,N
1506552955.0,286046999.7,N
1506552956.0,286046999.7,N
1506552975.8,286047002.4,N
1506552995.6,286047002.8,N
1506553015.4,286047003.1,N
1506553035.3,286047004.2,N
1506553055.1,286047003.3,N
1506553075.8,286047005.8,Y
1506553095.7,286047002.7,P
1506553115.5,286047004.3,P
1506553135.3,286047000.1,N
1506553155.2,286047000.4,N
1506553175.9,286047000.1,N
1506553195.7,286046999.4,N
